Weather History for Los Alamitos, CA

Change the Weather History Date:

Monday, December 23, 2013

  Actual Average Record
Temperature  
Mean Temperature 58 °F -  
Max Temperature 76 °F 66 °F 82 °F (1999)
Min Temperature 41 °F 47 °F 32 °F (2011)
Degree Days  
Heating Degree Days 6    
Growing Degree Days 8 (Base 50)    
Moisture  
Dew Point 41 °F    
Average Humidity 79    
Maximum Humidity 100    
Minimum Humidity 13    
Precipitation  
Precipitation 0.00 in - - ()
Sea Level Pressure  
Sea Level Pressure 30.25 in    
Wind  
Wind Speed 2 mph (NNW)    
Max Wind Speed 9 mph    
Max Gust Speed -    
Visibility 5 miles    
Events Fog    
Averages and records for this station are not official NWS values.
T = Trace of Precipitation, MM = Missing Value Source: NWS Daily Summary

Daily Weather History Graph

Daily Weather History Graph

Search for Another Location

Airport:

Trip Planner

Search our weather history database for the weather conditions in past years. The results will help you decide how hot, cold, wet, or windy it might be!

Date:

Astronomy

Dec. 23, 2013 Rise Set
Actual Time 6:54 AM PST 4:48 PM PST
Civil Twilight 6:26 AM PST 5:16 PM PST
Nautical Twilight 5:55 AM PST 5:47 PM PST
Astronomical Twilight 5:24 AM PST 6:18 PM PST
Moon 10:46 PM PST (12/23) 10:37 AM PST (12/23)
Length of Visible Light 10h 49m
Length of Day
9h 54m
Waning Gibbous, 67% of the Moon is Illuminated
Dec 23
Waning Gibbous
Dec 25
Last Quarter
Jan 1
New
Jan 7
First Quarter
Jan 15
Full

Hourly Weather History & Observations

Time (PST) Temp. Windchill Dew Point Humidity Pressure Visibility Wind Dir Wind Speed Gust Speed Precip Events Conditions
12:03 AM 46.4 °F - 46.4 °F 100% 30.26 in 1.2 mi Calm Calm - N/A   Clear
12:08 AM 46.4 °F - 46.4 °F 100% 30.26 in 0.8 mi Calm Calm - N/A   Clear
12:13 AM 46.4 °F - 46.4 °F 100% 30.26 in 1.0 mi Calm Calm - N/A   Clear
12:18 AM 46.4 °F - 46.4 °F 100% 30.26 in 1.8 mi North - - N/A   Clear
12:23 AM 46.4 °F - 46.4 °F 100% 30.25 in 0.5 mi Calm Calm - N/A Fog Fog
12:28 AM 44.6 °F - 44.6 °F 100% 30.25 in 0.2 mi Calm Calm - N/A Fog Fog
12:43 AM 46.4 °F 45.2 °F 46.4 °F 100% 30.25 in 0.8 mi WNW 3.5 mph - N/A   Clear
12:48 AM 44.6 °F - 44.6 °F 100% 30.25 in 1.2 mi WNW 2.3 mph - N/A   Clear
12:53 AM 42.8 °F - 42.8 °F 100% 30.25 in 0.8 mi NW 2.3 mph - N/A   Clear
12:58 AM 44.6 °F 43.1 °F 44.6 °F 100% 30.26 in 1.0 mi NNW 3.5 mph - N/A   Clear
1:03 AM 44.6 °F 43.1 °F 44.6 °F 100% 30.25 in 2.5 mi NW 3.5 mph - N/A   Clear
1:13 AM 44.6 °F - 44.6 °F 100% 30.25 in 2.0 mi NNW 2.3 mph - N/A   Clear
1:18 AM 46.4 °F - 46.4 °F 100% 30.25 in 2.0 mi North 2.3 mph - N/A   Clear
1:33 AM 48.2 °F - 48.2 °F 100% 30.25 in 3.0 mi NNW 3.5 mph - N/A   Clear
1:38 AM 46.4 °F - 46.4 °F 100% 30.26 in 1.2 mi North 2.3 mph - N/A   Clear
1:43 AM 46.4 °F 45.2 °F 46.4 °F 100% 30.26 in 1.0 mi North 3.5 mph - N/A   Clear
1:48 AM 46.4 °F - 46.4 °F 100% 30.26 in 2.0 mi North 2.3 mph - N/A   Clear
1:53 AM 48.2 °F - 48.2 °F 100% 30.26 in 4.0 mi North 4.6 mph - N/A   Clear
1:58 AM 47.3 °F - 47.3 °F 100% 30.27 in 4.0 mi NE 2.3 mph - N/A   Clear
2:58 AM 47.3 °F - 47.3 °F 100% 30.27 in 5.0 mi NE 2.3 mph - N/A   Clear
3:58 AM 45.5 °F - 45.5 °F 100% 30.26 in 4.0 mi Calm Calm - N/A   Clear
4:08 AM 42.8 °F - 42.8 °F 100% 30.25 in 0.8 mi Calm Calm - N/A   Clear
4:18 AM 44.6 °F 43.1 °F 44.6 °F 100% 30.25 in 1.5 mi WNW 3.5 mph - N/A   Clear
4:23 AM 44.6 °F - 44.6 °F 100% 30.25 in 3.0 mi NNW 1.2 mph - N/A   Clear
4:28 AM 42.8 °F - 42.8 °F 100% 30.25 in 2.5 mi WNW 2.3 mph - N/A   Clear
4:43 AM 42.8 °F - 42.8 °F 100% 30.25 in 1.5 mi Calm Calm - N/A   Clear
4:53 AM 42.8 °F 40.1 °F 42.8 °F 100% 30.25 in 2.5 mi NW 4.6 mph - N/A   Clear
4:58 AM 44.6 °F 41.4 °F 44.6 °F 100% 30.26 in 3.0 mi NNW 5.8 mph - N/A   Clear
5:58 AM 44.6 °F - 44.6 °F 100% 30.27 in 7.0 mi North 2.3 mph - N/A   Clear
6:58 AM 41.0 °F - 41.0 °F 100% 30.30 in 2.5 mi Calm Calm - N/A   Clear
7:18 AM 41.0 °F - 41.0 °F 100% 30.29 in 3.0 mi Calm Calm - N/A   Clear
7:58 AM 45.0 °F - 45.0 °F 100% 30.30 in 7.0 mi Calm Calm - N/A   Clear
8:58 AM 55.6 °F - 50.0 °F 81% 30.31 in 10.0 mi Calm Calm - N/A   Clear
9:58 AM 63.0 °F - 41.0 °F 45% 30.32 in 10.0 mi North 4.6 mph - N/A   Clear
10:58 AM 68.2 °F - 33.6 °F 28% 30.31 in 10.0 mi NNW 5.8 mph - N/A   Clear
11:58 AM 73.0 °F - 23.5 °F 16% 30.28 in 10.0 mi NNW 8.1 mph - N/A   Clear
12:58 PM 75.0 °F - 19.9 °F 13% 30.25 in 10.0 mi North 5.8 mph - N/A   Clear
1:58 PM 76.3 °F - 20.8 °F 13% 30.24 in 10.0 mi NNW 5.8 mph - N/A   Clear
2:58 PM 76.3 °F - 21.7 °F 13% 30.22 in 10.0 mi WNW 9.2 mph - N/A   Clear
3:58 PM 73.4 °F - 27.9 °F 18% 30.21 in 10.0 mi WNW 9.2 mph - N/A   Clear
4:58 PM 67.1 °F - 30.9 °F 26% 30.22 in 10.0 mi WNW 8.1 mph - N/A   Clear
5:58 PM 63.3 °F - 33.3 °F 33% 30.22 in 10.0 mi NNW 4.6 mph - N/A   Clear
6:58 PM 60.3 °F - 34.7 °F 38% 30.22 in 10.0 mi NNW 3.5 mph - N/A   Clear
7:58 PM 54.0 °F - 37.2 °F 53% 30.21 in 10.0 mi Calm Calm - N/A   Clear
8:58 PM 51.6 °F - 37.6 °F 59% 30.21 in 10.0 mi NW 6.9 mph - N/A   Clear
9:58 PM 57.2 °F - 37.0 °F 47% 30.20 in 10.0 mi NNW 5.8 mph - N/A   Clear
10:58 PM 55.4 °F - 33.4 °F 43% 30.20 in 10.0 mi North 8.1 mph - N/A   Clear
11:58 PM 55.2 °F - 32.7 °F 43% 30.17 in 10.0 mi Variable 3.5 mph - N/A   Clear